2023/10/19 00:00:00,54.7, 9.2
2023/10/19 00:10:00,54.7, 9.2
2023/10/19 00:20:00,54.7, 8.9
2023/10/19 00:30:00,54.7, 8.9
2023/10/19 00:40:00,54.6, 8.7
2023/10/19 00:50:00,54.6, 8.7
2023/10/19 01:00:00,54.6, 8.6
2023/10/19 01:10:00,54.5, 8.5
2023/10/19 01:20:00,54.5, 8.3
2023/10/19 01:30:00,54.5, 8.5
2023/10/19 01:40:00,54.4, 8.2
2023/10/19 01:50:00,54.4, 8.4
2023/10/19 02:00:00,54.4, 8.2
2023/10/19 02:10:00,54.4, 8.1
2023/10/19 02:20:00,54.3, 8.1
2023/10/19 02:30:00,54.3, 8.2
2023/10/19 02:40:00,54.2, 8.2
2023/10/19 02:50:00,54.2, 8.2
2023/10/19 03:00:00,54.1, 8.5
2023/10/19 03:10:00,54.1, 7.7
2023/10/19 03:20:00,54.0, 8.3
2023/10/19 03:30:00,54.1, 7.7
2023/10/19 03:40:00,53.9, 7.6
2023/10/19 03:50:00,54.0, 7.5
2023/10/19 04:00:00,53.4, 7.6
2023/10/19 04:10:00,50.4, 7.7
2023/10/19 04:20:00,---, 7.3
2023/10/19 04:30:00,53.5, 7.3
2023/10/19 04:40:00,---, 7.2
2023/10/19 04:50:00,46.1, 7.2
2023/10/19 05:00:00,48.9, 7.6
2023/10/19 05:10:00,51.9, 7.1
2023/10/19 05:20:00,---, 7.1
2023/10/19 05:30:00,51.9, 7.1
2023/10/19 05:40:00,45.7, 7.2
2023/10/19 05:50:00,43.9, 6.2
2023/10/19 06:00:00,28.9, 7.1
2023/10/19 06:10:00,37.8, 7.3
2023/10/19 06:20:00,43.0, 7.3
2023/10/19 06:30:00,---, 7.3
2023/10/19 06:40:00,49.2, 7.4
2023/10/19 06:50:00,51.8, 7.7
2023/10/19 07:00:00,39.2, 8.0
2023/10/19 07:10:00,46.7, 8.1
2023/10/19 07:20:00,47.4, 8.2
2023/10/19 07:30:00,49.7, 8.6
2023/10/19 07:40:00,42.1, 9.0
2023/10/19 07:50:00,40.1, 9.2
2023/10/19 08:00:00,38.8, 9.3
2023/10/19 08:10:00,46.9,10.0
2023/10/19 08:20:00,43.0,10.6
2023/10/19 08:30:00,49.9,11.2
2023/10/19 08:40:00,48.3,11.5
2023/10/19 08:50:00,45.1,11.9
2023/10/19 09:00:00,51.0,13.0
2023/10/19 09:10:00,49.5,14.2
2023/10/19 09:20:00,51.8,15.3
2023/10/19 09:30:00,52.2,16.2
2023/10/19 09:40:00,50.7,15.9
2023/10/19 09:50:00,53.1,16.9
2023/10/19 10:00:00,53.2,16.3
2023/10/19 10:10:00,53.6,15.4
2023/10/19 10:20:00,53.9,15.5
2023/10/19 10:30:00,54.0,15.7
2023/10/19 10:40:00,54.1,15.4
2023/10/19 10:50:00,54.3,22.3
2023/10/19 11:00:00,54.3,22.1
2023/10/19 11:10:00,54.2,21.2
2023/10/19 11:20:00,37.2,22.5
2023/10/19 11:30:00,---,21.9
2023/10/19 11:40:00,---,22.8
2023/10/19 11:50:00,21.5,22.7
2023/10/19 12:00:00,21.4,22.7
2023/10/19 12:10:00,23.2,22.9
2023/10/19 12:20:00,23.4,23.0
2023/10/19 12:30:00,22.1,23.0
2023/10/19 12:40:00,23.5,23.1
2023/10/19 12:50:00,23.2,22.6
2023/10/19 13:00:00,23.4,23.0
2023/10/19 13:10:00,23.8,22.0
2023/10/19 13:20:00,23.4,22.5
2023/10/19 13:30:00,23.7,22.1
2023/10/19 13:40:00,23.7,22.8
2023/10/19 13:50:00,23.7,21.3
2023/10/19 14:00:00,23.9,21.0
2023/10/19 14:10:00,24.3,19.7
2023/10/19 14:20:00,24.9,19.2
2023/10/19 14:30:00,25.3,20.5
2023/10/19 14:40:00,24.3,20.3
2023/10/19 14:50:00,24.4,18.0
2023/10/19 15:00:00,26.3,17.7
2023/10/19 15:10:00,27.8,17.0
2023/10/19 15:20:00,28.4,17.3
2023/10/19 15:30:00,28.9,17.4
2023/10/19 15:40:00,27.0,16.8
2023/10/19 15:50:00,26.4,16.6
2023/10/19 16:00:00,26.8,16.9
2023/10/19 16:10:00,26.7,16.9
2023/10/19 16:20:00,26.9,16.4
2023/10/19 16:30:00,26.5,16.3
2023/10/19 16:40:00,25.5,16.0
2023/10/19 16:50:00,25.6,15.6
2023/10/19 17:00:00,25.7,15.3
2023/10/19 17:10:00,25.8,15.2
2023/10/19 17:20:00,26.0,14.8
2023/10/19 17:30:00,25.7,14.3
2023/10/19 17:40:00,25.5,14.0
2023/10/19 17:50:00,25.3,13.7
2023/10/19 18:00:00,25.2,13.2
2023/10/19 18:10:00,25.1,13.2
2023/10/19 18:20:00,25.0,12.7
2023/10/19 18:30:00,24.8,12.6
2023/10/19 18:40:00,24.7,12.2
2023/10/19 18:50:00,24.7,12.0
2023/10/19 19:00:00,24.8,11.8
2023/10/19 19:10:00,24.7,11.7
2023/10/19 19:20:00,24.7,11.6
2023/10/19 19:30:00,24.7,11.5
2023/10/19 19:40:00,24.7,11.4
2023/10/19 19:50:00,24.7,11.7
2023/10/19 20:00:00,24.6,11.1
2023/10/19 20:10:00,24.6,11.0
2023/10/19 20:20:00,24.6,11.0
2023/10/19 20:30:00,24.7,11.0
2023/10/19 20:40:00,24.6,10.9
2023/10/19 20:50:00,24.5,10.9
2023/10/19 21:00:00,24.5,10.8
2023/10/19 21:10:00,24.5,10.7
2023/10/19 21:20:00,24.5,10.6
2023/10/19 21:30:00,24.5,10.5
2023/10/19 21:40:00,24.4,10.2
2023/10/19 21:50:00,24.5,10.5
2023/10/19 22:00:00,24.5,10.5
2023/10/19 22:10:00,24.4,10.4
2023/10/19 22:20:00,24.4,10.7
2023/10/19 22:30:00,24.6,10.7
2023/10/19 22:40:00,24.4,10.5
2023/10/19 22:50:00,24.6,10.4
2023/10/19 23:00:00,24.5,10.1
2023/10/19 23:10:00,24.4,10.3
2023/10/19 23:20:00,24.4,10.3
2023/10/19 23:30:00,24.3,10.3
2023/10/19 23:40:00,24.3,10.4
2023/10/19 23:50:00,24.3,10.2
